Regional Weather Roundup
Issued by NWS Bismarck, ND

Home | Current Version | Previous Version | Text Only | Print | Product List | Glossary On
Versions: 1 2 3 4 5 6 7 8 9 10 11 12 13 14 15 16 17 18 19 20 21 22 23 24 25 26 27 28 29 30 31 32 33 34 35 36 37 38 39 40 41 42 43 44 45 46 47 48 49 50
000
ASUS43 KBIS 010620
RWRBIS

NWR BROADCAST TEXT
NATIONAL WEATHER SERVICE BISMARCK ND
100 AM CDT FRI AUG 01 2014

NOTE: "FAIR" INDICATES FEW OR NO CLOUDS BELOW 12,000 FEET WITH NO
SIGNIFICANT WEATHER AND/OR OBSTRUCTIONS TO VISIBILITY.


CITY           SKY/WX    TMP DP  RH WIND       PRES   REMARKS
WILLISTON      CLEAR     69  59  70 CALM      30.05R
MINOT          CLEAR     64  57  78 CALM      30.05S
MINOT AFB      CLEAR     58  58  99 NE1       30.05S
BISMARCK       CLEAR     65  57  75 NE7       30.05S
DICKINSON      CLEAR     61  56  83 E8        30.05S
GARRISON         N/A     62  56  80 CALM      30.06S
HETTINGER ARPT CLEAR     65  54  67 SE7       30.07S
JAMESTOWN      CLEAR     62  58  86 CALM      30.05R
CARRINGTON     FAIR      61  61 100 SW5       30.07R
CROSBY           N/A     59  59 100 CALM      30.07R
HARVEY         FAIR      57  57 100 NW3       30.06R
HAZEN          FAIR      55  54  94 E3        30.07S
LINTON         FAIR      63  59  88 SE9       30.06R
MANDAN         FAIR      64  55  72 E6        30.07S
RUGBY          FAIR      61  61 100 CALM      30.06R
STANLEY        FAIR      61  61 100 SE5       30.08S
TIOGA          FAIR      55  55 100 CALM      30.11S
WATFORD CITY   FAIR      63  57  82 E8        30.02F
$$

CITY           SKY/WX    TMP DP  RH WIND       PRES   REMARKS
GRAND FORKS    CLEAR     63  61  93 CALM      30.01S
GRAND FORKS AF CLEAR     62  62 100 W2        30.03R
DEVILS LAKE    CLEAR     64  57  77 CALM      30.04R
FARGO          CLEAR     66  60  81 S5        30.01S
CANDO          FAIR      59  59 100 NE6       30.07R
CAVALIER       FAIR      63  59  88 NW3       30.04R
GRAFTON        FAIR      64  64 100 NW3       30.02S
GWINNER          N/A     63  63 100 SW7       30.05S
LANGDON        FAIR      59  55  88 CALM      30.07R
ROLLA          CLOUDY    59  59 100 N3        30.09S
WALHALLA         N/A     57  57 100 CALM        N/A
$$

CITY           SKY/WX    TMP DP  RH WIND       PRES   REMARKS
ABERDEEN       CLEAR     57  55  93 S3        30.05S
MOBRIDGE       PTCLDY    63  58  83 SE6       30.03S
BUFFALO          N/A     64  48  56 S8        30.02S
RAPID CITY     PTCLDY    60  51  72 NW7       30.12F
GLASGOW        MOCLDY    75  48  38 NW6       30.00S
SIDNEY         PTCLDY    68  55  64 CALM      30.03S
WOLF POINT     CLOUDY    72  56  57 NE8       30.00S
GLENDIVE       MOCLDY    66  48  52 NW3       30.02F
MILES CITY     PTCLDY    76  36  23 S12       30.03R
BAKER          MOCLDY    63  48  58 NE5       30.06R
$$

CITY           SKY/WX    TMP DP  RH WIND       PRES   REMARKS
BILLINGS       PTCLDY    72  39  30 N3        30.11R
GREAT FALLS    PTCLDY    68  42  38 S6        30.13S
REGINA         CLEAR     66  59  77 E7        30.08R
ESTEVAN        PTCLDY    61  57  88 E5        30.08R
$$



USA.gov is the U.S. government's official web portal to all federal, state and local government web resources and services.